EDT,Max TemperatureF,Mean TemperatureF,Min TemperatureF,Max Dew PointF,MeanDew PointF,Min DewpointF,Max Humidity, Mean Humidity, Min Humidity, Max Sea Level PressureIn, Mean Sea Level PressureIn, Min Sea Level PressureIn, Max VisibilityMiles, Mean VisibilityMiles, Min VisibilityMiles, Max Wind SpeedMPH, Mean Wind SpeedMPH, Max Gust SpeedMPH,PrecipitationIn, CloudCover, Events, WindDirDegrees
2013-3-1,60,53,45,40,36,33,76,54,40,30.05,30.00,29.95,,,,13,6,17,0.00,,,310
2013-3-2,55,44,32,34,29,25,89,57,32,30.08,30.04,29.99,,,,23,8,29,0.00,,,308
2013-3-3,51,40,29,29,27,24,85,58,39,30.17,30.09,30.05,,,,15,6,20,0.00,,,305
2013-3-4,66,46,26,33,26,20,85,56,20,30.25,30.18,30.14,,,,12,2,21,0.00,,,254
2013-3-5,74,54,34,61,47,32,89,72,46,30.17,30.09,29.96,,,,23,8,31,0.01,,,211
2013-3-6,67,54,41,60,33,22,87,48,22,30.19,30.08,29.97,,,,21,10,32,0.00,,,317
2013-3-7,67,50,32,41,33,27,89,60,28,30.26,30.21,30.16,,,,12,5,15,0.00,,,332
2013-3-8,77,54,31,44,35,27,92,57,15,30.26,30.21,30.14,,,,13,3,17,0.00,,,340
2013-3-9,75,56,36,48,40,34,92,57,25,30.27,30.21,30.17,,,,12,3,15,0.00,,,85
2013-3-10,81,66,50,53,50,46,83,60,35,30.19,30.14,30.07,,,,16,4,23,0.00,,,142
2013-3-11,76,66,55,58,55,51,86,67,50,30.12,30.00,29.88,,,,22,8,32,0.00,,,167
2013-3-12,73,61,48,65,53,42,93,71,35,30.07,29.93,29.83,,,,13,7,20,0.15,,,275
2013-3-13,73,59,45,46,38,29,86,53,22,30.23,30.15,30.07,,,,15,7,21,0.00,,,320
2013-3-14,65,51,37,34,27,23,64,41,20,30.33,30.26,30.22,,,,15,6,21,0.00,,,355
2013-3-15,74,53,32,45,33,28,82,53,23,30.31,30.24,30.18,,,,18,4,23,0.00,,,265
2013-3-16,76,58,39,54,45,37,86,68,86,30.19,30.13,30.07,,,,18,5,23,0.00,,,238
2013-3-17,74,58,42,60,51,40,100,77,46,30.13,30.07,30.02,,,,16,4,21,0.09,,,193
2013-3-18,78,69,60,66,61,58,100,84,62,30.04,29.98,29.90,,,,17,5,24,0.03,,,186
2013-3-19,82,70,57,62,59,56,93,72,45,30.04,29.98,29.91,,,,21,5,26,0.24,,,309
2013-3-20,77,63,48,59,51,43,96,68,38,30.00,29.94,29.86,,,,15,5,18,0.15,,,23
2013-3-21,70,54,38,46,36,26,93,58,20,30.02,29.95,29.91,,,,14,5,28,0.00,,,306
2013-3-22,71,55,39,46,40,30,92,58,34,30.04,29.98,29.93,,,,12,4,28,0.00,,,80
2013-3-23,79,68,56,70,59,44,100,81,62,29.99,29.87,29.77,,,,23,5,32,0.34,,,177
2013-3-24,81,73,64,70,67,62,93,83,62,29.75,29.66,29.61,,,,28,13,39,0.19,,,224
2013-3-25,66,56,45,61,35,23,87,46,20,30.09,29.91,29.72,,,,20,9,26,0.00,,,304
2013-3-26,57,47,36,30,27,21,76,45,28,30.28,30.18,30.09,,,,18,6,24,0.00,,,312
2013-3-27,64,47,29,37,30,26,85,58,25,30.36,30.30,30.24,,,,14,5,20,0.00,,,332
2013-3-28,71,51,31,43,32,28,92,55,20,30.34,30.28,30.22,,,,13,4,20,0.00,,,347
2013-3-29,76,56,36,47,39,32,92,61,21,30.35,30.28,30.21,,,,14,3,18,0.00,,,286
2013-3-30,76,57,38,53,41,30,92,60,20,30.27,30.22,30.15,,,,15,5,22,0.00,,,206
2013-3-31,78,65,51,60,54,48,93,71,40,30.14,30.08,30.01,,,,21,8,31,0.01,,,201